AirNav   ATP
 
 885 users online  

4M1 Carroll County Airport
Berryville, Arkansas, USA

GOING TO BERRYVILLE?


FAA INFORMATION EFFECTIVE 06 DECEMBER 2018

Location

FAA Identifier: 4M1
Lat/Long: 36-22-52.8000N / 093-37-28.4000W
36-22.880000N / 093-37.473333W
36.3813333 / -93.6245556
(estimated)
Elevation: 1205.5 ft. / 367.4 m (surveyed)
Variation: 02E (2010)
From city: 3 miles W of BERRYVILLE, AR
Time zone: UTC -6 (UTC -5 during Daylight Saving Time)
Zip code: 72616

Airport Operations

Airport use: Open to the public
Activation date: 05/1966
Control tower: no
ARTCC: MEMPHIS CENTER
FSS: JONESBORO FLIGHT SERVICE STATION
NOTAMs facility: JBR (NOTAM-D service available)
Attendance: MON-FRI 0800-1600
Wind indicator: lighted
Segmented circle: yes
Lights: ACTVT MIRL RY 07/25, TWY LGTS, REIL RYS 07 & 25 - CTAF.
Beacon: white-green (lighted land airport)
Operates sunset to sunrise.

Airport Communications

CTAF: 122.9
RAZORBACK APPROACH: 126.6
RAZORBACK DEPARTURE: 126.6
  • APCH/DEP SERVICE PRVDD BY MEMPHIS ARTCC ON FREQS 126.1/269.0 (FAYETTEVILLE RCAG) WHEN RAZORBACK APCH CTL CLSD.

Nearby radio navigation aids

VOR radial/distance  VOR name  Freq  Var
HROr277/20.2HARRISON VOR/DME112.5004E
RZCr067/25.3RAZORBACK VORTAC116.4004E

Airport Services

Fuel available: 100LL
FUEL AVBL 24 HR SELF SERVE WITH CREDIT CARD.
Parking: hangars and tiedowns
Airframe service: MAJOR
Powerplant service: MAJOR
Bottled oxygen: NONE
Bulk oxygen: NONE

Runway Information

Runway 7/25

Dimensions: 3554 x 75 ft. / 1083 x 23 m
Surface: asphalt, in excellent condition
Weight bearing capacity: 
Single wheel: 12.0
Runway edge lights: medium intensity
RUNWAY 7  RUNWAY 25
Latitude: 36-22.797025N36-22.964125N
Longitude: 093-37.819565W093-37.125405W
Elevation: 1166.6 ft.1204.9 ft.
Gradient: 1.1% UP0.9%
Traffic pattern: leftleft
Runway heading: 071 magnetic, 073 true251 magnetic, 253 true
Markings: nonprecision, in fair conditionnonprecision, in fair condition
Visual slope indicator: 2-light PAPI on left (3.00 degrees glide path)2-light PAPI on left (4.00 degrees glide path)
Runway end identifier lights: yesyes
Touchdown point: yes, no lightsyes, no lights

Airport Ownership and Management from official FAA records

Ownership: Publicly-owned
Owner: CARROLL COUNTY
210 WEST CHURCH ST.
BERRYVILLE, AR 72616
Phone 870-423-2668
Manager: MICHAEL PFEIFER
518 COUNTY ROAD 308
BERRYVILLE, AR 72616
Phone 870-423-8393

Airport Operational Statistics

Aircraft based on the field: 19
Single engine airplanes: 13
Multi engine airplanes: 1
Ultralights: 5
    
Aircraft operations: avg 50/day *
55% transient general aviation
44% local general aviation
1% military
* for 12-month period ending 31 August 2015

Additional Remarks

NO LINE OF SIGHT BTN RY ENDS.
ULTRALIGHT ACTIVITY ON & INVOF ARPT.
DEER ON & INVOF ARPT.

Instrument Procedures

NOTE: All procedures below are presented as PDF files. If you need a reader for these files, you should download the free Adobe Reader.

NOT FOR NAVIGATION. Please procure official charts for flight.
FAA instrument procedures published for use from 6 December 2018 at 0901Z to 3 January 2019 at 0900Z.

 
IAPs - Instrument Approach Procedures
RNAV (GPS) RWY 07   download (219KB)
RNAV (GPS) RWY 25   download (261KB)
NOTE: Special Take-Off Minimums/Departure Procedures apply   download (131KB)

Other nearby airports with instrument procedures:

H34 - Huntsville Municipal Airport (19 nm S)
KFWB - Branson West Municipal Airport - Emerson Field (22 nm NE)
KBBG - Branson Airport (22 nm NE)
94K - Cassville Municipal Airport (23 nm NW)
KROG - Rogers Executive Airport - Carter Field (23 nm W)
 
Loc | Ops | Rwys | IFR | FBO | Links
Com | Nav | Svcs | Stats | Notes

Branson Jet Center
AirBoss

 
Area around 4M1 (Carroll County Airport)
 
Road maps at: MapQuest Bing Google
 
Aerial photo
WARNING: Photo may not be current or correct
Aerial photo of 4M1 (Carroll County Airport)
Photo courtesy of the Arkansas Department of Aeronautics
Taken in the Spring of 2007

Do you have a better or more recent aerial photo of Carroll County Airport that you would like to share? If so, please send us your photo.

 
Sectional chart

 
Airport distance calculator
Flying to Carroll County Airport? Find the distance to fly.

From to 4M1

Sunrise and sunset
Times for 14-Dec-2018
 Local
(UTC-6)
 Zulu
(UTC)
Morning civil twilight06:5012:50
Sunrise07:1913:19
Sunset16:5922:59
Evening civil twilight17:2823:28

Current date and time
Zulu (UTC)  15-Dec-2018 00:59:23
Local (UTC-6)  14-Dec-2018 18:59:23
 
METAR
KFWB 
22nm NE 
150035Z AUTO 36014G25KT 2 1/2SM -RA OVC003 04/04 A3001 RMK AO2 P0001
KROG 
22nm W 
150046Z 35012G19KT 1 3/4SM -RA BR OVC003 03/03 A3004 RMK AO2 P0000
KBBG 
22nm NE 
150045Z 33011G18KT 4SM BR OVC004 04/04 A3001
KHRO 
24nm E 
150053Z AUTO 33010KT 6SM RA BR OVC005 06/05 A2998 RMK AO2 SLP155 P0006 T00560050
KASG 
27nm SW 
150048Z 36015G21KT 2SM BR OVC003 04/04 A3004
KVBT 
29nm W 
150054Z AUTO 36013G20KT 4SM -RA BR OVC003 03/03 A3007 RMK AO2 RAB54 P0000
KXNA 
33nm W 
150053Z 36015G20KT 5SM BR OVC003 04/02 A3005 RMK AO2 PK WND 01028/0023 SLP178 T00440022
KFYV 
34nm SW 
150053Z AUTO 35013KT 4SM -RA BR OVC004 04/03 A3003 RMK AO2 RAE10B46 SLP170 P0001 T00390033
KHFJ 
37nm NW 
150035Z AUTO 35010KT 1/2SM FG OVC002 02/02 A3007 RMK AO2
KSLG 
42nm W 
142344Z AUTO 4SM BR OVC004 04/03 A3005 RMK AO2
TAF
KROG 
22nm W 
141731Z 1418/1518 01013G19KT P6SM VCSH OVC005 TEMPO 1418/1422 3SM -SHRA BR FM150600 36010KT P6SM OVC007 FM151400 33007KT P6SM OVC015
KBBG 
22nm NE 
142309Z 1423/1518 34015G23KT 2SM RA BR OVC003 TEMPO 1423/1502 1/2SM FG OVC002 FM150200 36010G18KT 3SM BR OVC003 FM151300 34009KT 4SM BR BKN010 FM151500 33008KT 6SM BR BKN030 FM151600 33008KT P6SM BKN050
KHRO 
24nm E 
141724Z 1418/1518 35010G15KT 6SM -SHRA BR OVC005 FM150200 33012G20KT 3SM -SHRA BR OVC009 WS020/03041KT FM151300 32012G19KT 5SM BR OVC015 WS020/03046KT
NOTAMs
Click for the latest NOTAMs
NOTAMs are issued by the DoD/FAA and will open in a separate window not controlled by AirNav.

 

 
 

FBO, Fuel Providers, and Aircraft Ground Support

  
 Business Name 
 
 Contact 
 
 Services / Description 
 
Fuel Prices
 
Comments
  
Carroll County Airport 870-423-8393
870-423-2120
[web site]
[email]

Like us on facebook
Airport management, Aviation fuel, Aircraft parking (ramp or tiedown), Hangars, Hangar leasing / sales, Passenger terminal and lounge, Flight training, ...

More info about Carroll County Airport
Shell
100LL
SS $4.45 
 Updated 07-Dec-2018
 
   8 read write
SS=Self service
Update Fuel Prices
 

Would you like to see your business listed on this page?

 If your business provides an interesting product or service to pilots, flight crews, aircraft, or users of the Carroll County Airport, you should consider listing it here.  To start the listing process, click on the button below
 
Add a business
 

Other Pages about Carroll County Airport

co.carroll.ar.us
Carroll County Airport
 
Update a link
 
Copyright © AirNav, LLC. All rights reserved. Privacy Policy  Contact